Location: Grand Mazuras
(45.9128°N, 1.7636°E)
Time: 05:58:06
(UTC+00:00)

H-2A R/B - Pass Details

Date: 18 April 2021
Orbit: 575 x 596 km, 98.2° (Epoch: 05 May)

Event Time Altitude Azimuth Distance (km) Brightness Sun altitude
Rises 21:48:30 0° 12° (NNE) 2,848 7.6 -26.5°
Reaches altitude 10° 21:50:41 10° 12° (NNE) 1,942 6.6 -26.7°
Enters shadow 21:53:46 48° 6° (N) 788 4.3 -27.0°
